Previsão horária em Allschwil

Hoje, 25 Junho, Sexta-feira

Tempo Temperatura Precipitação Vento Pressão Humidade
00:00 +14°C° 0 mm 1 m/s 738 mmHg 95%
01:00 +14°C° 0 mm 1 m/s 738 mmHg 96%
02:00 +14°C° 0.3 mm 1 m/s 737 mmHg 96%
03:00 +14°C° 0.3 mm 1 m/s 737 mmHg 96%
04:00 +15°C° 0.3 mm 1 m/s 737 mmHg 96%
05:00 +15°C° 0.1 mm 1 m/s 737 mmHg 96%
06:00 +15°C° 0.1 mm 1 m/s 737 mmHg 96%
07:00 +15°C° 0.1 mm 1 m/s 737 mmHg 96%
08:00 +16°C° 0.1 mm 2 m/s 737 mmHg 94%
09:00 +16°C° 0.1 mm 2 m/s 737 mmHg 92%
10:00 +17°C° 0.1 mm 2 m/s 737 mmHg 90%
11:00 +18°C° 0.2 mm 2 m/s 737 mmHg 82%
12:00 +19°C° 0.2 mm 2 m/s 737 mmHg 75%
13:00 +21°C° 0.2 mm 2 m/s 737 mmHg 68%
14:00 +21°C° 0.2 mm 2 m/s 737 mmHg 67%
15:00 +21°C° 0.2 mm 2 m/s 736 mmHg 66%
16:00 +21°C° 0.2 mm 2 m/s 736 mmHg 65%
17:00 +21°C° 0.2 mm 2 m/s 736 mmHg 70%
18:00 +20°C° 0.2 mm 2 m/s 736 mmHg 75%
19:00 +20°C° 0.2 mm 1 m/s 736 mmHg 81%
20:00 +19°C° 0 mm 1 m/s 736 mmHg 84%
21:00 +16°C° 0 mm 1 m/s 737 mmHg 87%
22:00 +15°C° 0 mm 1 m/s 737 mmHg 91%
23:00 +14°C° 0 mm 1 m/s 737 mmHg 91%

Amanhã, 26 Junho, Sábado

Tempo Temperatura Precipitação Vento Pressão Humidade
00:00 +13°C° 0 mm 0 m/s 736 mmHg 92%
01:00 +12°C° 0 mm 0 m/s 736 mmHg 92%
02:00 +12°C° 0 mm 0 m/s 736 mmHg 92%
03:00 +12°C° 0 mm 0 m/s 736 mmHg 93%
04:00 +12°C° 0 mm 0 m/s 736 mmHg 93%
05:00 +13°C° 0 mm 0 m/s 736 mmHg 91%
06:00 +14°C° 0 mm 0 m/s 736 mmHg 89%
07:00 +15°C° 0 mm 0 m/s 736 mmHg 87%
08:00 +19°C° 0 mm 1 m/s 736 mmHg 80%
09:00 +21°C° 0 mm 1 m/s 736 mmHg 73%
10:00 +22°C° 0 mm 1 m/s 736 mmHg 66%
11:00 +24°C° 0 mm 1 m/s 736 mmHg 62%
12:00 +25°C° 0 mm 1 m/s 736 mmHg 59%
13:00 +26°C° 0 mm 2 m/s 736 mmHg 55%
14:00 +26°C° 0 mm 2 m/s 735 mmHg 55%
15:00 +26°C° 0 mm 1 m/s 735 mmHg 55%
16:00 +26°C° 0 mm 1 m/s 735 mmHg 55%
17:00 +25°C° 0 mm 1 m/s 735 mmHg 63%
18:00 +24°C° 0 mm 1 m/s 734 mmHg 71%
19:00 +23°C° 0 mm 1 m/s 734 mmHg 79%
20:00 +22°C° 0 mm 1 m/s 735 mmHg 83%
21:00 +20°C° 0 mm 1 m/s 735 mmHg 86%
22:00 +18°C° 0 mm 1 m/s 735 mmHg 89%
23:00 +18°C° 0 mm 1 m/s 735 mmHg 90%

Depois de amanhã, 27 Junho, Domingo

Tempo Temperatura Precipitação Vento Pressão Humidade
00:00 +18°C° 0 mm 1 m/s 734 mmHg 90%
01:00 +16°C° 0 mm 1 m/s 734 mmHg 91%
02:00 +16°C° 0 mm 1 m/s 734 mmHg 91%
03:00 +16°C° 0 mm 1 m/s 734 mmHg 92%
04:00 +16°C° 0 mm 1 m/s 734 mmHg 92%
05:00 +18°C° 0 mm 1 m/s 734 mmHg 89%
06:00 +19°C° 0 mm 1 m/s 734 mmHg 86%
07:00 +20°C° 0 mm 1 m/s 734 mmHg 83%
08:00 +22°C° 0 mm 1 m/s 734 mmHg 76%
09:00 +24°C° 0 mm 1 m/s 734 mmHg 69%
10:00 +26°C° 0 mm 1 m/s 734 mmHg 62%
11:00 +27°C° 0 mm 1 m/s 733 mmHg 59%
12:00 +28°C° 0 mm 1 m/s 733 mmHg 55%
13:00 +29°C° 0 mm 2 m/s 733 mmHg 51%
14:00 +29°C° 0 mm 2 m/s 733 mmHg 53%
15:00 +29°C° 0 mm 2 m/s 733 mmHg 56%
16:00 +28°C° 0 mm 2 m/s 732 mmHg 58%
17:00 +27°C° 0 mm 2 m/s 732 mmHg 66%
18:00 +26°C° 0 mm 2 m/s 732 mmHg 74%
19:00 +25°C° 0 mm 1 m/s 732 mmHg 82%
20:00 +24°C° 0.5 mm 2 m/s 732 mmHg 86%
21:00 +21°C° 0.5 mm 2 m/s 732 mmHg 89%
22:00 +20°C° 0.5 mm 3 m/s 733 mmHg 93%
23:00 +20°C° 1 mm 2 m/s 733 mmHg 94%

28 Junho, Segunda-feira

Tempo Temperatura Precipitação Vento Pressão Humidade
00:00 +19°C° 1 mm 2 m/s 733 mmHg 96%
01:00 +19°C° 1 mm 1 m/s 733 mmHg 98%
02:00 +19°C° 0 mm 1 m/s 733 mmHg 98%
03:00 +19°C° 0 mm 1 m/s 733 mmHg 97%
04:00 +16°C° 0 mm 0 m/s 733 mmHg 97%
05:00 +17°C° 0.1 mm 0 m/s 733 mmHg 96%
06:00 +18°C° 0.1 mm 0 m/s 733 mmHg 95%
07:00 +21°C° 0.1 mm 1 m/s 733 mmHg 94%
08:00 +22°C° 0 mm 1 m/s 733 mmHg 86%
09:00 +24°C° 0 mm 1 m/s 733 mmHg 78%
10:00 +26°C° 0 mm 1 m/s 733 mmHg 70%
11:00 +27°C° 0 mm 2 m/s 732 mmHg 68%
12:00 +27°C° 0 mm 2 m/s 732 mmHg 67%
13:00 +28°C° 0 mm 2 m/s 732 mmHg 65%
14:00 +27°C° 1.7 mm 3 m/s 732 mmHg 73%
15:00 +25°C° 1.7 mm 3 m/s 731 mmHg 81%
16:00 +23°C° 1.7 mm 4 m/s 731 mmHg 89%
17:00 +22°C° 9.7 mm 4 m/s 731 mmHg 91%
18:00 +21°C° 9.7 mm 3 m/s 732 mmHg 94%
19:00 +20°C° 9.7 mm 3 m/s 732 mmHg 97%
20:00 +19°C° 1.4 mm 2 m/s 733 mmHg 97%
21:00 +18°C° 1.4 mm 2 m/s 733 mmHg 97%
22:00 +19°C° 1.4 mm 1 m/s 733 mmHg 97%
23:00 +19°C° 0.6 mm 1 m/s 733 mmHg 98%

29 Junho, Terça-feira

Tempo Temperatura Precipitação Vento Pressão Humidade
00:00 +19°C° 0.6 mm 1 m/s 733 mmHg 98%
01:00 +18°C° 0.6 mm 1 m/s 733 mmHg 98%
02:00 +18°C° 0.9 mm 1 m/s 733 mmHg 98%
03:00 +17°C° 0.9 mm 2 m/s 733 mmHg 98%
04:00 +17°C° 0.9 mm 2 m/s 733 mmHg 98%
05:00 +16°C° 1 mm 2 m/s 733 mmHg 98%
06:00 +16°C° 1 mm 2 m/s 733 mmHg 98%
07:00 +16°C° 1 mm 2 m/s 733 mmHg 98%
08:00 +16°C° 0.7 mm 2 m/s 733 mmHg 97%
09:00 +15°C° 0.7 mm 2 m/s 734 mmHg 97%
10:00 +15°C° 0.7 mm 2 m/s 734 mmHg 96%
11:00 +15°C° 0.3 mm 2 m/s 734 mmHg 96%
12:00 +16°C° 0.3 mm 1 m/s 734 mmHg 95%
13:00 +16°C° 0.3 mm 1 m/s 734 mmHg 95%
14:00 +16°C° 1.8 mm 1 m/s 734 mmHg 94%
15:00 +16°C° 1.8 mm 1 m/s 734 mmHg 94%
16:00 +15°C° 1.8 mm 1 m/s 734 mmHg 94%
17:00 +15°C° 0.8 mm 1 m/s 734 mmHg 94%
18:00 +15°C° 0.8 mm 1 m/s 735 mmHg 94%
19:00 +15°C° 0.8 mm 1 m/s 735 mmHg 94%
20:00 +15°C° 0 mm 1 m/s 735 mmHg 94%
21:00 +14°C° 0 mm 1 m/s 735 mmHg 94%
22:00 +13°C° 0 mm 1 m/s 735 mmHg 94%
23:00 +13°C° 0 mm 1 m/s 735 mmHg 94%

30 Junho, Quarta-feira

Tempo Temperatura Precipitação Vento Pressão Humidade
00:00 +12°C° 0 mm 1 m/s 735 mmHg 94%
01:00 +12°C° 0 mm 1 m/s 735 mmHg 93%
02:00 +12°C° 0 mm 1 m/s 734 mmHg 93%
03:00 +12°C° 0 mm 1 m/s 734 mmHg 93%
04:00 +11°C° 0 mm 1 m/s 734 mmHg 93%
05:00 +12°C° 0 mm 1 m/s 734 mmHg 92%
06:00 +14°C° 0 mm 1 m/s 734 mmHg 90%
07:00 +14°C° 0 mm 0 m/s 733 mmHg 88%
08:00 +18°C° 0 mm 1 m/s 733 mmHg 80%
09:00 +20°C° 0 mm 1 m/s 733 mmHg 71%
10:00 +21°C° 0 mm 1 m/s 733 mmHg 63%
11:00 +22°C° 0.2 mm 1 m/s 733 mmHg 62%
12:00 +23°C° 0.2 mm 1 m/s 733 mmHg 60%
13:00 +23°C° 0.2 mm 2 m/s 732 mmHg 59%
14:00 +21°C° 0.3 mm 2 m/s 732 mmHg 65%
15:00 +20°C° 0.3 mm 2 m/s 732 mmHg 70%
16:00 +20°C° 0.3 mm 3 m/s 732 mmHg 75%
17:00 +18°C° 0.3 mm 3 m/s 733 mmHg 80%
18:00 +17°C° 0.3 mm 3 m/s 733 mmHg 85%
19:00 +16°C° 0.3 mm 3 m/s 733 mmHg 90%
20:00 +14°C° 1 mm 3 m/s 734 mmHg 92%
21:00 +15°C° 1 mm 2 m/s 734 mmHg 94%
22:00 +14°C° 1 mm 2 m/s 734 mmHg 96%
23:00 +14°C° 1.5 mm 2 m/s 735 mmHg 96%
Mostrar mais